Погода в Хопке

Словакия     48°55′27″N   19°36′09″E
темп.,
°C
ветер,
м/с
пор.,
м/с
влажн.,
%
обл.,
%
осадки,
мм/ч
давл.,
гПа
погр.,
м
10 мая, пн
пн1023:00+5ююв34965 0.0 102258
02:00+4ююв34965 0.0 102163
05:00+4ююв349467 0.0 102064
08:00+11ююв35625 0.0 1018424
11:00+16ююв46440 0.0 1017887
14:00+18ююв374312 0.0 10161245
17:00+17ююв35504 0.0 10161045
20:00+10ююв339012 0.0 101761
11 мая, вт
вт1123:00+8юв239788 0.0 101853
02:00+8юв339712 0.0 101762
05:00+8ююв34972 0.0 101663
08:00+14ююв34710 0.0 1014334
11:00+18ююв35480 0.0 10131039
14:00+20ю36442 0.0 10121451
17:00+19ююв35505 0.0 10111322
20:00+13ююв228714 0.0 101139
12 мая, ср
ср1223:00+10юв22965 0.0 101232
02:00+10юв22960 0.0 101021
05:00+9юв21960 0.0 100818
08:00+15юв12750 0.0 1007396
11:00+19юв234911 0.2 10041804
14:00+21юв3538100 0.6 10022893
17:00+17ююв355897 0.4 10021370
20:00+11ююв2291100 1.0 100342
13 мая, чт
чт1323:00+10ююв229499 0.8 100238
02:00+10юв1294100 1.0 100249
05:00+10ю2399100 3.9 1000186
08:00+9ююз2394100 5.7 1001354
11:00+11ююз2385100 0.9 1001628
14:00+11ююз2384100 2.3 1001796
17:00+10юз2386100 0.9 1002637
20:00+7зюз129533 1.3 100433
14 мая, пт
пт1423:00+4юз119749 0.0 100622
02:00+4юз119672 0.0 100626
05:00+4юз11956 0.0 100734
08:00+7юз238241 0.0 1007631
11:00+10зюз356191 0.0 10071303
14:00+10зюз256398 0.1 10081285
17:00+7зюз2577100 0.1 1011968
20:00+7юз1282100 0.1 101163